Flag for Syria Weather past 2 weeks in Damascus, Syria

Now
61 °F

Clear.


Feels Like: 61 °F
Forecast: 59 / 89 °F
Wind: No wind

Location: Damascus Int. Airport

Current Time: May 25, 2015 at 7:04:14 AM

Latest Report: May 25, 2015 at 6:00 AM


Visibility: 10 mi

Pressure: 29.98 "Hg

Humidity: 55%

Dew point: 45 °F

Location of DamascusLocation

Historic Weather in Damascus — Graph

°F

Damascus temperature yesterday

Maximum temperature yesterday: 93 °F (at 2:00 PM)
Minimum temperature yesterday: 59 °F (at 4:00 AM)
Average temperature yesterday: 76 °F

Past Weeks' High & Low Weather Summary

 TemperatureHumidityPressure
High99 °F (May 19, 3:00 PM)88% (May 11, 5:00 AM)30.24 "Hg (May 11, 5:00 AM)
Low50 °F (May 13, 3:00 AM)7% (May 19, 2:00 PM)29.74 "Hg (May 10, 5:00 AM)
Average73 °F36%29.96 "Hg
* Reported May 10 5:00 AM — May 25 5:00 AM, Damascus, Weather by CustomWeather, © 2015

Note: Actual official high and low records may vary slightly from our data, if they occured in-between our weather recording intervals... More about our weather records

Advertising

Damascus weather history for previous 24 hours

 ConditionsComfort  
Time TempWeatherWind HumidityBarometerVisibility
5:00 AM
Mon, May 25
61 °FClear.7 mph59%29.98 "Hg10 mi
4:00 AM63 °FClear.7 mph49%29.95 "Hg10 mi
3:00 AM66 °FClear.No wind46%29.98 "Hg10 mi
2:00 AM66 °FClear.7 mph46%29.98 "Hg10 mi
1:00 AM66 °FClear.9 mph43%29.98 "Hg10 mi
12:00 AM70 °FClear.No wind38%30.01 "Hg10 mi
11:00 PM
Sun, May 24
75 °FClear.7 mph31%30.01 "Hg10 mi
10:00 PM59 °FClear.7 mph59%30.01 "Hg10 mi
9:00 PM79 °FClear.9 mph30%29.98 "Hg10 mi
8:00 PM82 °FPassing clouds.14 mph25%29.98 "HgN/A
7:00 PM86 °FScattered clouds.21 mph24%29.95 "HgN/A
6:00 PM86 °FPartly sunny.25 mph22%29.95 "HgN/A
5:00 PM91 °FPartly sunny.21 mph18%29.92 "HgN/A
4:00 PM91 °FPartly sunny.18 mph17%29.92 "HgN/A
3:00 PM93 °FPartly sunny.14 mph16%29.92 "HgN/A
2:00 PM93 °FSunny.16 mph16%29.95 "Hg10 mi
1:00 PM90 °FSunny.14 mph22%29.95 "Hg10 mi
12:00 PM90 °FSunny.18 mph24%29.98 "Hg10 mi
11:00 AM86 °FSunny.2 mph31%29.98 "Hg10 mi
10:00 AM81 °FSunny.5 mph37%29.98 "Hg10 mi
9:00 AM73 °FSunny.7 mph38%29.98 "Hg10 mi
8:00 AM68 °FSunny.8 mph46%29.98 "Hg10 mi
7:00 AM63 °FSunny.9 mph59%29.98 "Hg10 mi
Weather by CustomWeather, © 2015

See weather overviewHow to use our weather pages